Location: Gebenbach
(49.5378°N, 11.8735°E)
Time: 12:11:06
(UTC+00:00)

Cosmos 1689 Rocket - Pass Details

Date: 29 October 2020
Orbit: 360 x 375 km, 97.5° (Epoch: 25 November)

Event Time Altitude Azimuth Distance (km) Brightness Sun altitude
Exits shadow 16:47:50 - 35° (NE) 1,605 4.8 -9.1°
Reaches altitude 10° 16:48:32 10° 42° (NE) 1,357 4.4 -9.2°
Maximum altitude 16:50:50 21° 96° (E) 872 3.3 -9.6°
Drops below altitude 10° 16:53:08 10° 149° (SSE) 1,345 4.6 -9.9°
Sets 16:55:19 0° 166° (SSE) 2,185 5.8 -10.3°
